[[{"header":{"parameterUnit":"m.s-1","parameterCategory":1,"la1":30.2991,"la2":30.254,"lo1":-89.0895,"lo2":-89.0444,"dy":0.0017,"dx":0.0017,"nx":28,"ny":28,"refTime":"2024-12-23T03:00:00:Z","depth":0,"parameterNumber":2,"parameterNumberName":"U-component_of_WINDS"},"data":[0,0,0,0,0,0,0,0,0,0,0,0,0,0,0,0,0,0,0,0,0,0,0,0,0,0,0,0,0,0,0,0,0,0,0,0,0,0,0,0,0,0,0,0,0,0,0,0,0,0,0,0,0,0,0,0,0,0,-1.0622,-1.0622,0,-1.0653,-1.0653,-1.0653,-1.0652,-1.0652,-1.0651,-1.0651,-1.0682,-1.0683,-1.0684,0,0,0,0,0,0,0,0,0,0,0,0,0,-1.0561,-1.0562,-1.0622,-1.0622,-1.0622,-1.0652,-1.0653,-1.0653,-1.0652,-1.0652,-1.0651,-1.0651,-1.0681,-1.0683,-1.0684,0,0,0,0,0,0,0,0,0,0,0,0,0,-1.0589,-1.0563,-1.0622,-1.0625,-1.0626,-1.0652,-1.0653,-1.0653,-1.0652,-1.0652,-1.0651,-1.065,-1.0681,-1.0683,-1.0685,-1.0709,0,0,-1.069,-1.0691,0,0,0,0,0,0,0,0,-1.0588,-1.0592,-1.0624,-1.0625,-1.0626,-1.0648,-1.0643,-1.0672,-1.0652,-1.0642,-1.0651,-1.065,-1.0671,-1.0674,-1.0681,-1.071,-1.0711,-1.069,-1.0691,-1.0692,-1.0693,0,0,0,0,0,0,0,-1.0586,-1.059,-1.0634,-1.0625,-1.0626,-1.0626,-1.0629,-1.0648,-1.066,-1.0643,-1.0643,-1.0647,-1.0671,-1.0679,-1.0681,-1.0712,-1.069,-1.0692,-1.0693,-1.0694,-1.0763,-1.0764,0,0,0,0,0,0,-1.0583,-1.0589,-1.0633,-1.0635,-1.0605,-1.0627,-1.0631,-1.0641,-1.066,-1.0662,-1.0647,-1.0647,-1.0676,-1.0679,-1.0683,-1.0712,-1.0692,-1.0694,-1.0695,-1.0763,-1.0763,-1.0764,0,0,0,0,0,0,-1.0582,-1.0587,-1.0632,-1.0612,-1.0617,-1.0629,-1.0641,-1.0642,-1.065,-1.0663,-1.0665,-1.0653,-1.0676,-1.068,-1.0702,-1.0713,-1.0695,-1.0696,-1.0762,-1.0763,-1.0764,-1.0772,0,0,0,0,0,0,-1.058,-1.0587,-1.0596,-1.0612,-1.0618,-1.0651,-1.0642,-1.0643,-1.0653,-1.0653,-1.0669,-1.0671,-1.0676,-1.07,-1.0704,-1.0716,-1.0698,-1.0761,-1.0762,-1.0763,-1.0771,-1.0773,-1.0775,0,0,0,0,0,-1.0578,-1.0597,-1.0596,-1.0602,-1.063,-1.0652,-1.0655,-1.066,-1.0654,-1.0664,-1.0672,-1.067,-1.0712,-1.0702,-1.0707,-1.0719,-1.076,-1.0762,-1.0763,-1.077,-1.0773,-1.0775,0,0,0,0,0,0,-1.0581,-1.0599,-1.0599,-1.0623,-1.0636,-1.0651,-1.0663,-1.0663,-1.0678,-1.0677,-1.0683,-1.0686,-1.0709,-1.0716,-1.0705,-1.0744,-1.0735,-1.0738,-1.0738,-1.0741,-1.0743,-1.0741,-1.0699,0,0,0,0,0,-1.0585,-1.0601,-1.0615,-1.0635,-1.0642,-1.0652,-1.0661,-1.0664,-1.0677,-1.0683,-1.0692,-1.0705,-1.0721,-1.0732,-1.0747,-1.0772,-1.0775,-1.0783,-1.0785,-1.0787,-1.0789,-1.0803,-1.0807,-1.077,-1.077,-1.077,0,0,-1.0592,-1.0604,-1.0613,-1.0636,-1.0647,-1.0663,-1.0656,-1.0673,-1.0686,-1.0685,-1.0707,-1.0715,-1.073,-1.0754,-1.0765,-1.076,-1.08,-1.0789,-1.079,-1.0792,-1.0805,-1.0809,-1.0812,-1.0771,-1.0771,-1.077,0,0,-1.0614,-1.0625,-1.0643,-1.0653,-1.0669,-1.0676,-1.068,-1.0696,-1.0701,-1.0723,-1.0723,-1.0738,-1.0765,-1.0776,-1.0784,-1.0811,-1.0811,-1.0816,-1.0828,-1.0842,-1.0845,-1.0847,-1.0857,-1.086,-1.0819,-1.0819,-1.0819,0,-1.0621,-1.0646,-1.0652,-1.067,-1.068,-1.0681,-1.0699,-1.0709,-1.0729,-1.0736,-1.0731,-1.0766,-1.0776,-1.0802,-1.0809,-1.0816,-1.0821,-1.0814,-1.0844,-1.0846,-1.0849,-1.0858,-1.0862,-1.0819,-1.0819,-1.0819,-1.0819,0,-1.0654,-1.0671,-1.0684,-1.0704,-1.0715,-1.0733,-1.0742,-1.0753,-1.0755,-1.0762,-1.0785,-1.0797,-1.0815,-1.0822,-1.0824,-1.0849,-1.0846,-1.0843,-1.0834,-1.0853,-1.0862,-1.0865,-1.082,-1.082,-1.082,-1.0819,0,0,-1.0678,-1.0701,-1.0706,-1.0715,-1.0733,-1.0746,-1.0764,-1.0782,-1.0792,-1.0806,-1.0821,-1.0845,-1.0842,-1.0852,-1.0855,-1.0868,-1.0888,-1.0863,-1.0863,-1.0867,-1.0917,-1.0919,-1.0923,-1.0888,-1.0889,-1.0889,-1.0916,0,-1.0702,-1.0734,-1.074,-1.0769,-1.0785,-1.0786,-1.0802,-1.0815,-1.0822,-1.0837,-1.0845,-1.0861,-1.0856,-1.0862,-1.0875,-1.0883,-1.0898,-1.0882,-1.0903,-1.0903,-1.0899,-1.0928,-1.093,-1.0954,-1.0919,-1.092,-1.092,0,-1.0734,-1.0749,-1.0779,-1.0795,-1.0802,-1.0816,-1.0833,-1.0847,-1.0862,-1.0866,-1.0878,-1.0881,-1.09,-1.0891,-1.0917,-1.0905,-1.0915,-1.092,-1.0921,-1.0923,-1.0913,-1.0931,-1.0962,-1.0966,-1.0926,-1.0925,-1.0925,0,-1.0748,-1.0776,-1.0798,-1.0805,-1.0825,-1.0835,-1.0843,-1.0857,-1.0868,-1.0883,-1.089,-1.0907,-1.0916,-1.093,-1.0937,-1.0929,-1.0963,-1.0954,-1.0967,-1.0967,-1.0974,-1.0973,-1.1007,-1.098,-1.098,-1.098,-1.098,0,-1.0774,-1.0792,-1.0804,-1.0818,-1.0838,-1.0845,-1.0866,-1.0874,-1.0887,-1.0902,-1.0904,-1.0918,-1.0927,-1.0942,-1.0948,-1.0969,-1.0973,-1.0977,-1.0979,-1.0977,-1.0977,-1.0983,-1.0981,-1.0981,-1.0981,-1.098,-1.098,0,-1.0793,-1.0802,-1.0826,-1.0843,-1.0847,-1.0862,-1.0876,-1.0889,-1.0897,-1.0916,-1.0921,-1.0932,-1.0951,-1.0959,-1.0982,-1.0986,-1.101,-1.101,-1.1005,-1.1005,-1.1018,-1.1017,-1.1057,-1.1063,-1.1032,-1.1032,-1.1032,0,-1.0809,-1.0823,-1.0841,-1.0852,-1.0861,-1.0877,-1.0888,-1.0896,-1.0907,-1.0926,-1.0937,-1.0955,-1.097,-1.0999,-1.101,-1.1027,-1.1028,-1.1041,-1.103,-1.1029,-1.1028,-1.1027,-1.1029,-1.1043,-1.1043,-1.1043,-1.1043,0,-1.0836,-1.084,-1.0856,-1.0873,-1.0886,-1.0901,-1.0914,-1.0923,-1.0933,-1.0945,-1.0964,-1.0976,-1.1,-1.1018,-1.1036,-1.1045,-1.1046,-1.1047,-1.1051,-1.1049,-1.1046,-1.1048,-1.101,-1.1046,-1.1045,-1.1045,-1.1045,-1.1045,-1.0854,-1.0867,-1.0882,-1.09,-1.0911,-1.0924,-1.0937,-1.0947,-1.0963,-1.0982,-1.0986,-1.1006,-1.1021,-1.1046,-1.1056,-1.1071,-1.1068,-1.1074,-1.1076,-1.1077,-1.1078,-1.1043,-1.1075,-1.1075,-1.1075,-1.1075,-1.1075,0,-1.0881,-1.0891,-1.0907,-1.0927,-1.0941,-1.0941,-1.0957,-1.0968,-1.0986,-1.1,-1.1015,-1.1037,-1.1055,-1.1067,-1.1086,-1.1096,-1.1097,-1.1101,-1.11,-1.1102,-1.1079,-1.1074,-1.11,-1.11,-1.11,-1.11,-1.11,-1.11,-1.0897,-1.0918,-1.0924,-1.0952,-1.0962,-1.0982,-1.0991,-1.1003,-1.1014,-1.1039,-1.1054,-1.1062,-1.1075,-1.1095,-1.1112,-1.1115,-1.1121,-1.1125,-1.1128,-1.1106,-1.1104,-1.1101,-1.1096,-1.1127,-1.1127,-1.115,-1.115,-1.115]},{"header":{"parameterUnit":"m.s-1","parameterCategory":1,"la1":30.2991,"la2":30.254,"lo1":-89.0895,"lo2":-89.0444,"dy":0.0017,"dx":0.0017,"nx":28,"ny":28,"refTime":"2024-12-23T03:00:00:Z","depth":0,"parameterNumber":3,"parameterNumberName":"V-component_of_WINDS"},"data":[0,0,0,0,0,0,0,0,0,0,0,0,0,0,0,0,0,0,0,0,0,0,0,0,0,0,0,0,0,0,0,0,0,0,0,0,0,0,0,0,0,0,0,0,0,0,0,0,0,0,0,0,0,0,0,0,0,0,-1.6413,-1.6415,0,-1.6589,-1.6591,-1.6593,-1.6671,-1.6671,-1.6671,-1.6671,-1.6848,-1.6853,-1.6858,0,0,0,0,0,0,0,0,0,0,0,0,0,-1.6142,-1.6147,-1.6413,-1.6415,-1.6417,-1.6589,-1.6591,-1.6594,-1.6671,-1.6671,-1.6671,-1.6671,-1.6847,-1.6853,-1.6859,0,0,0,0,0,0,0,0,0,0,0,0,0,-1.6283,-1.6148,-1.6413,-1.6477,-1.6485,-1.6588,-1.6591,-1.6594,-1.6671,-1.6671,-1.6671,-1.667,-1.6845,-1.6852,-1.6859,-1.6912,0,0,-1.6882,-1.6885,0,0,0,0,0,0,0,0,-1.6275,-1.6293,-1.6465,-1.6473,-1.6481,-1.6608,-1.6561,-1.6701,-1.6672,-1.66,-1.6671,-1.667,-1.6768,-1.6782,-1.6816,-1.692,-1.6928,-1.6883,-1.6887,-1.689,-1.6892,0,0,0,0,0,0,0,-1.6265,-1.6286,-1.6483,-1.6468,-1.6478,-1.6496,-1.6516,-1.6588,-1.6684,-1.6607,-1.6613,-1.6633,-1.6773,-1.6808,-1.6821,-1.693,-1.6882,-1.6889,-1.6894,-1.6896,-1.7086,-1.7087,0,0,0,0,0,0,-1.6245,-1.6277,-1.6477,-1.6488,-1.6375,-1.6501,-1.6523,-1.6568,-1.6684,-1.6701,-1.6633,-1.6636,-1.6796,-1.6812,-1.6827,-1.6897,-1.689,-1.6897,-1.6901,-1.7086,-1.7087,-1.7087,0,0,0,0,0,0,-1.6239,-1.6262,-1.647,-1.6384,-1.6412,-1.6507,-1.6555,-1.6571,-1.6607,-1.6703,-1.6721,-1.6652,-1.6796,-1.6817,-1.689,-1.6904,-1.69,-1.6907,-1.7085,-1.7086,-1.7087,-1.7035,0,0,0,0,0,0,-1.6231,-1.626,-1.6281,-1.6384,-1.6417,-1.6531,-1.6556,-1.6575,-1.662,-1.6625,-1.6726,-1.6742,-1.6798,-1.6879,-1.6898,-1.6914,-1.6913,-1.7084,-1.7085,-1.7087,-1.7036,-1.7034,-1.7032,0,0,0,0,0,-1.6221,-1.6259,-1.6282,-1.6305,-1.6445,-1.6531,-1.655,-1.6614,-1.6621,-1.6643,-1.6704,-1.6739,-1.6899,-1.6886,-1.6908,-1.6926,-1.7084,-1.7085,-1.7086,-1.7037,-1.7034,-1.7033,0,0,0,0,0,0,-1.6154,-1.6273,-1.63,-1.6373,-1.6441,-1.6544,-1.6574,-1.6609,-1.6677,-1.6679,-1.6755,-1.6777,-1.6844,-1.6892,-1.6875,-1.6983,-1.6994,-1.7,-1.6949,-1.6948,-1.6946,-1.6933,-1.6919,0,0,0,0,0,-1.6147,-1.6208,-1.6309,-1.6363,-1.6396,-1.6479,-1.6519,-1.6562,-1.6636,-1.6666,-1.6733,-1.6803,-1.6869,-1.6911,-1.6977,-1.7043,-1.7066,-1.7067,-1.7065,-1.7063,-1.7067,-1.7106,-1.7108,-1.7092,-1.7092,-1.7092,0,0,-1.6135,-1.6208,-1.6241,-1.6351,-1.641,-1.647,-1.6503,-1.6566,-1.6611,-1.6675,-1.6749,-1.68,-1.6883,-1.6954,-1.6988,-1.6996,-1.7077,-1.7065,-1.7062,-1.7068,-1.7108,-1.7109,-1.711,-1.7093,-1.7092,-1.7092,0,0,-1.6143,-1.6204,-1.6256,-1.6314,-1.6403,-1.6457,-1.6469,-1.6568,-1.6605,-1.668,-1.673,-1.6784,-1.6897,-1.6954,-1.6998,-1.7028,-1.7062,-1.7047,-1.7038,-1.7075,-1.7076,-1.7078,-1.7089,-1.7092,-1.7051,-1.705,-1.705,0,-1.6116,-1.621,-1.6278,-1.6339,-1.6386,-1.6447,-1.65,-1.6553,-1.6657,-1.6688,-1.6696,-1.6839,-1.6899,-1.6983,-1.6991,-1.7024,-1.704,-1.7036,-1.707,-1.7073,-1.7075,-1.7087,-1.709,-1.7048,-1.7048,-1.7049,-1.7049,0,-1.6173,-1.6237,-1.6268,-1.6369,-1.642,-1.6476,-1.6552,-1.6595,-1.6634,-1.6687,-1.6763,-1.6838,-1.692,-1.6943,-1.6981,-1.7034,-1.7036,-1.7056,-1.7069,-1.7073,-1.7085,-1.709,-1.7045,-1.7046,-1.7046,-1.7047,0,0,-1.6144,-1.6282,-1.6292,-1.6339,-1.6441,-1.6492,-1.655,-1.6632,-1.6667,-1.6737,-1.6788,-1.6882,-1.6902,-1.6951,-1.6996,-1.7029,-1.7048,-1.7045,-1.7048,-1.7043,-1.711,-1.7095,-1.7099,-1.7071,-1.7072,-1.7073,-1.7103,0,-1.6167,-1.6276,-1.6339,-1.6422,-1.6482,-1.6541,-1.6592,-1.6659,-1.6711,-1.6769,-1.6826,-1.6891,-1.6912,-1.6942,-1.6977,-1.7038,-1.7062,-1.7037,-1.7119,-1.7121,-1.7097,-1.7105,-1.7089,-1.7114,-1.7108,-1.7109,-1.711,0,-1.6208,-1.6278,-1.6367,-1.6462,-1.649,-1.6535,-1.6615,-1.667,-1.6747,-1.6782,-1.6838,-1.6883,-1.6947,-1.6954,-1.7043,-1.7024,-1.7061,-1.7096,-1.7099,-1.711,-1.7116,-1.7116,-1.7124,-1.7128,-1.7118,-1.7117,-1.7117,0,-1.6179,-1.6295,-1.6364,-1.6401,-1.6514,-1.6544,-1.6592,-1.667,-1.6715,-1.6784,-1.6814,-1.689,-1.6931,-1.6988,-1.7053,-1.7052,-1.7135,-1.7148,-1.7166,-1.7164,-1.7181,-1.718,-1.7196,-1.7204,-1.7204,-1.7204,-1.7204,0,-1.6198,-1.625,-1.6352,-1.6394,-1.6454,-1.6526,-1.6583,-1.6636,-1.6704,-1.6757,-1.6812,-1.686,-1.6942,-1.7,-1.7051,-1.7117,-1.7135,-1.7165,-1.7178,-1.7161,-1.7157,-1.7187,-1.7187,-1.7205,-1.7205,-1.7205,-1.7204,0,-1.6176,-1.6246,-1.6325,-1.6425,-1.6452,-1.6491,-1.6577,-1.662,-1.6674,-1.6741,-1.676,-1.6845,-1.6917,-1.6987,-1.7082,-1.7116,-1.7182,-1.7199,-1.7156,-1.7163,-1.7178,-1.7176,-1.7214,-1.7223,-1.7224,-1.7224,-1.7224,0,-1.6184,-1.6226,-1.6331,-1.637,-1.6418,-1.6481,-1.6528,-1.6599,-1.6645,-1.6737,-1.6768,-1.6844,-1.6909,-1.702,-1.709,-1.7164,-1.7183,-1.7191,-1.7194,-1.7176,-1.7184,-1.7181,-1.7186,-1.7189,-1.7189,-1.7189,-1.7189,0,-1.6191,-1.6224,-1.6289,-1.6366,-1.642,-1.6485,-1.6551,-1.658,-1.6664,-1.6713,-1.6787,-1.6837,-1.6935,-1.701,-1.7091,-1.7141,-1.7179,-1.7187,-1.7195,-1.7178,-1.7152,-1.7167,-1.7152,-1.7186,-1.7186,-1.7186,-1.7187,-1.7187,-1.6185,-1.6225,-1.6305,-1.6376,-1.6433,-1.6494,-1.6539,-1.6599,-1.6663,-1.6749,-1.6787,-1.6862,-1.6938,-1.7052,-1.71,-1.716,-1.7169,-1.7181,-1.7184,-1.7186,-1.7182,-1.7142,-1.7175,-1.7175,-1.7175,-1.7175,-1.7175,0,-1.6195,-1.625,-1.6314,-1.6405,-1.6461,-1.6492,-1.6567,-1.6611,-1.6677,-1.6745,-1.6808,-1.6893,-1.6965,-1.7041,-1.7118,-1.7151,-1.717,-1.7168,-1.7167,-1.7178,-1.7169,-1.7155,-1.7151,-1.7151,-1.7151,-1.7151,-1.7151,-1.7151,-1.6207,-1.6277,-1.6319,-1.6417,-1.6471,-1.6546,-1.6586,-1.6642,-1.6697,-1.679,-1.6851,-1.6899,-1.6971,-1.7053,-1.7121,-1.7141,-1.7167,-1.7161,-1.7186,-1.7177,-1.7178,-1.718,-1.7167,-1.7166,-1.7166,-1.719,-1.719,-1.719]}]]